Weather in Borislav

Ukraine / Lviv District     49°17′21″N   23°25′08″E
temp.,
°C
wind,
m/s
gust,
m/s
humid.,
%
clouds,
%
prec.,
mm/h
press.,
hPa
HPBL,
m
4 march, thu
thu423:00+4sw4128122 0.0 1025268
02:00+4sw6178211 0.0 1023458
05:00+5sw7177518 0.0 1020502
08:00+4sw5157727 0.0 1019406
11:00+8sw6126180 0.0 1017595
14:00+10wsw5105540 0.0 10141090
17:00+8wsw510662 0.0 1013738
20:00+6sw3127747 0.0 1014434
5 march, fri
fri523:00+5sw2990100 1.6 1013446
02:00+4ese0196100 3.5 101262
05:00+3n2298100 1.5 1011138
08:000nnw4799100 7.1 1012336
11:000nnw3598100 4.7 1014366
14:00−1n4797100 7.2 1015487
17:00−1nne4897100 3.8 1018556
20:00−3nnw2793100 5.0 1021443
6 march, sat
sat623:00−6nw239071 0.0 102451
02:00−7w238835 0.0 102633
05:00−7w23840 0.0 102743
08:00−6w25848 0.0 1029177
11:00−2nw477722 0.1 10301162
14:00−1nw576645 0.5 10301496
17:00−2nw367362 0.1 10311104
20:00−5sw228464 0.1 103224
7 march, sun
sun723:00−6sw33830 0.0 103269
02:00−6sw35810 0.0 1031103
05:00−5sw313770 0.0 1028452
08:00−4sw615710 0.0 1027588
11:00+1wsw712620 0.0 10251018
14:00+2wsw711600 0.0 10231108
17:00+1wsw613649 0.0 1020778
20:00−1sw615705 0.0 1020502
8 march, mon
mon823:00−2sw515720 0.0 1020468
02:00−2wsw413763 0.0 1019389
05:00−3sw3108095 0.0 1018268
08:00−2sw397898 0.0 1018274
11:00+2w466588 0.0 10171185
14:00+3wnw476995 0.1 10161226
17:00+1wnw4877100 0.2 1016950
20:00−2wnw259896 0.9 1019259